Daggett-Barstow, CA

6:06 AM PDT on May 27, 2017 (GMT -0700)
Barstow-Daggett

Weather History for KDAG - February, 2014

Change the Weather History Date:

Sunday, February 16, 2014

  Actual Average Record
Temperature  
Mean Temperature 66 °F 52 °F  
Max Temperature 81 °F 65 °F 84 °F (2015)
Min Temperature 51 °F 40 °F 24 °F (1990)
Degree Days  
Heating Degree Days 0    
Cooling Degree Days 1    
Growing Degree Days 16 (Base 50)    
Moisture  
Dew Point 23 °F    
Average Humidity 21    
Maximum Humidity 33    
Minimum Humidity 12    
Precipitation  
Precipitation 0.00 in 0.02 in 0.52 in (1980)
Month to date precipitation 0.34  
Year to date precipitation 0.94  
Sea Level Pressure  
Sea Level Pressure 29.96 in    
Wind  
Wind Speed 10 mph (West)    
Max Wind Speed 24 mph    
Max Gust Speed 32 mph    
Visibility 10 miles    
Events      
T = Trace of Precipitation, MM = Missing Value Source: NWS Daily Summary

Daily Weather History Graph

Daily Weather History Graph

Search for Another Location

Airport or City:

Trip Planner

Search our weather history database for the weather conditions in past years. The results will help you decide how hot, cold, wet, or windy it might be!

Date:

Astronomy

Feb. 16, 2014 Rise Set
Actual Time 6:31 AM PST 5:31 PM PST
Civil Twilight 6:05 AM PST 5:56 PM PST
Nautical Twilight 5:36 AM PST 6:26 PM PST
Astronomical Twilight 5:07 AM PST 6:55 PM PST
Moon 7:25 PM PST (2/16) 7:09 AM PST (2/16)
Length of Visible Light 11h 51m
Length of Day
10h 59m
Full, 97% of the Moon is Illuminated
Feb 16
Full
Feb 22
Last Quarter
Mar 1
New
Mar 8
First Quarter
Mar 16
Full

Hourly Weather History & Observations

Time (PST) Temp. Dew Point Humidity Pressure Visibility Wind Dir Wind Speed Gust Speed Precip Events Conditions
12:50 AM 57.0 °F 18.0 °F 22% 29.93 in 10.0 mi WSW 9.2 mph - N/A   Clear
1:50 AM 55.9 °F 19.0 °F 24% 29.91 in 10.0 mi WSW 6.9 mph - N/A   Clear
2:50 AM 55.9 °F 19.9 °F 25% 29.90 in 10.0 mi SW 9.2 mph - N/A   Clear
3:50 AM 55.9 °F 23.0 °F 28% 29.91 in 10.0 mi West 11.5 mph - N/A   Clear
4:50 AM 57.0 °F 19.9 °F 24% 29.94 in 10.0 mi WNW 10.4 mph - N/A   Clear
5:50 AM 55.0 °F 19.9 °F 25% 29.94 in 10.0 mi Variable 3.5 mph - N/A   Clear
6:50 AM 51.1 °F 21.0 °F 31% 29.96 in 10.0 mi Calm Calm - N/A   Clear
7:50 AM 55.9 °F 19.9 °F 25% 29.98 in 10.0 mi WSW 8.1 mph - N/A   Clear
8:50 AM 62.1 °F 19.0 °F 19% 29.99 in 10.0 mi WSW 5.8 mph - N/A   Clear
9:50 AM 69.1 °F 21.0 °F 16% 29.99 in 10.0 mi WNW 15.0 mph - N/A   Clear
10:50 AM 75.0 °F 24.1 °F 15% 29.97 in 10.0 mi West 24.2 mph 29.9 mph N/A   Clear
11:50 AM 79.0 °F 24.1 °F 13% 29.95 in 10.0 mi West 21.9 mph 29.9 mph N/A   Clear
12:50 PM 80.1 °F 23.0 °F 12% 29.92 in 10.0 mi West 23.0 mph 32.2 mph N/A   Clear
1:50 PM 81.0 °F 28.9 °F 15% 29.90 in 10.0 mi West 20.7 mph 28.8 mph N/A   Clear
2:50 PM 80.1 °F 27.0 °F 14% 29.91 in 10.0 mi WNW 17.3 mph - N/A   Clear
3:50 PM 80.1 °F 21.9 °F 12% 29.92 in 10.0 mi WNW 16.1 mph - N/A   Clear
4:50 PM 77.0 °F 23.0 °F 13% 29.94 in 10.0 mi NW 6.9 mph - N/A   Clear
5:50 PM 69.1 °F 23.0 °F 18% 29.97 in 10.0 mi WSW 4.6 mph - N/A   Clear
6:50 PM 64.0 °F 21.0 °F 19% 29.99 in 10.0 mi WSW 6.9 mph - N/A   Clear
7:50 PM 63.0 °F 21.9 °F 21% 30.01 in 10.0 mi West 3.5 mph - N/A   Clear
8:50 PM 59.0 °F 26.1 °F 28% 30.03 in 10.0 mi WNW 6.9 mph - N/A   Clear
9:50 PM 57.9 °F 26.1 °F 30% 30.03 in 10.0 mi West 11.5 mph - N/A   Clear
10:50 PM 59.0 °F 26.1 °F 28% 30.02 in 10.0 mi WSW 15.0 mph - N/A   Clear
11:50 PM 55.9 °F 27.0 °F 33% 30.03 in 10.0 mi WSW 11.5 mph - N/A   Clear